Flag for Romania Weather past 2 weeks in Sibiu, Romania

Now
46 °F

Light rain. Overcast.


Feels Like: 44 °F
Forecast: 34 / 51 °F
Wind: 5 mph from North

Location: Sibiu Airport

Current Time: Apr 18, 2015 at 5:00:41 PM

Latest Report: Apr 18, 2015 at 4:30 PM


Visibility: N/A

Pressure: 29.89 "Hg

Humidity: 82%

Dew point: 41 °F

Location of SibiuLocation

Historic Weather in Sibiu — Graph

°F

Sibiu temperature yesterday

Maximum temperature yesterday: 75 °F (at 3:00 PM)
Minimum temperature yesterday: 50 °F (at 6:00 AM)
Average temperature yesterday: 63 °F

Past Weeks' High & Low Weather Summary

 TemperatureHumidityPressure
High75 °F (Apr 17, 3:00 PM)100% (Apr 6, 5:00 AM)30.42 "Hg (Apr 6, 5:00 AM)
Low28 °F (Apr 10, 6:30 AM)17% (Apr 9, 6:00 PM)29.74 "Hg (Apr 18, 5:00 AM)
Average48 °F58%30.09 "Hg
* Reported Apr 3 4:00 PM — Apr 18 4:00 PM, Sibiu, Weather by CustomWeather, © 2015

Note: Actual official high and low records may vary slightly from our data, if they occured in-between our weather recording intervals... More about our weather records

Advertising

Sibiu weather history for previous 24 hours

 ConditionsComfort  
Time TempWeatherWind HumidityBarometerVisibility
4:00 PM
Sat, Apr 18
46 °FLight rain. Overcast.10 mph82%29.89 "HgN/A
3:30 PM46 °FLight rain. Overcast.7 mph76%29.89 "HgN/A
3:00 PM48 °FRain. Mostly cloudy.3 mph82%29.89 "Hg4 mi
2:30 PM48 °FLight rain. Overcast.5 mph87%29.86 "HgN/A
2:00 PM48 °FLight rain. Overcast.8 mph87%29.86 "Hg6 mi
1:30 PM48 °FLight rain. Overcast.6 mph87%29.86 "HgN/A
1:00 PM48 °FRain. Overcast.6 mph87%29.86 "Hg4 mi
12:30 PM48 °FRain. More clouds than sun.8 mph87%29.86 "Hg4 mi
12:00 PM48 °FLight rain. Overcast.2 mph87%29.83 "HgN/A
11:30 AM48 °FLight rain. Overcast.8 mph87%29.83 "HgN/A
11:00 AM50 °FLight rain. Mostly cloudy.8 mph88%29.80 "HgN/A
10:30 AM50 °FSprinkles. More clouds than sun.16 mph88%29.80 "HgN/A
10:00 AM54 °FLight rain. More clouds than sun.12 mph77%29.77 "HgN/A
9:30 AM54 °FLight rain. Overcast.12 mph77%29.77 "HgN/A
9:00 AM54 °FLight rain. Overcast.10 mph82%29.77 "HgN/A
8:30 AM52 °FLight rain. More clouds than sun.12 mph82%29.77 "Hg6 mi
8:00 AM52 °FLight rain. More clouds than sun.9 mph82%29.74 "HgN/A
7:30 AM52 °FLight rain. Mostly cloudy.7 mph82%29.74 "HgN/A
7:00 AM52 °FLight rain. Mostly cloudy.7 mph77%29.74 "HgN/A
6:30 AM50 °FLight rain. Mostly cloudy.8 mph88%29.74 "HgN/A
6:00 AM50 °FLight rain. Mostly cloudy.10 mph88%29.74 "HgN/A
5:30 AM52 °FLight rain. Mostly cloudy.13 mph77%29.74 "HgN/A
5:00 AM55 °FLight rain. Overcast.17 mph63%29.74 "HgN/A
4:00 AM54 °FOvercast.2 mph72%29.77 "HgN/A
3:00 AM54 °FPartly cloudy.3 mph72%29.80 "HgN/A
2:00 AM55 °FPassing clouds.9 mph63%29.80 "HgN/A
1:00 AM54 °FPassing clouds.1 mph67%29.83 "HgN/A
12:00 AM55 °FLight rain. Passing clouds.13 mph63%29.86 "HgN/A
11:00 PM
Fri, Apr 17
59 °FPassing clouds.16 mph51%29.86 "HgN/A
10:00 PM57 °FPassing clouds.2 mph59%29.86 "HgN/A
8:30 PM61 °FScattered clouds.16 mph48%29.86 "HgN/A
8:00 PM61 °FScattered clouds.17 mph48%29.86 "HgN/A
7:30 PM63 °FScattered clouds.30 mph45%29.86 "HgN/A
7:00 PM68 °FScattered clouds.18 mph33%29.83 "HgN/A
6:30 PM68 °FSunny.13 mph33%29.83 "Hg10 mi
6:00 PM70 °FSunny.20 mph31%29.83 "Hg10 mi
5:30 PM70 °FPassing clouds.22 mph29%29.80 "HgN/A
5:00 PM72 °FPassing clouds.24 mph27%29.80 "HgN/A
Weather by CustomWeather, © 2015

See weather overviewHow to use our weather pages